Time,TemperatureF,DewpointF,PressureIn,WindDirection,WindDirectionDegrees,WindSpeedMPH,WindSpeedGustMPH,Humidity,HourlyPrecipIn,Conditions,Clouds,dailyrainin,SoftwareType,DateUTC
2013-11-03 00:02:00,38.0,35.9,30.07,WNW,292,0.0,0.0,92,0.00,,---,0.01,VWS V14.01,2013-11-03 05:02:00,
2013-11-03 00:07:00,38.0,35.9,30.07,WNW,292,0.0,0.0,92,0.00,,---,0.00,VWS V14.01,2013-11-03 05:07:00,
2013-11-03 00:12:00,37.9,35.8,30.07,WNW,292,0.0,0.0,92,0.00,,---,0.00,VWS V14.01,2013-11-03 05:12:00,
2013-11-03 00:17:00,37.8,35.7,30.07,WNW,292,0.0,0.0,92,0.00,,---,0.00,VWS V14.01,2013-11-03 05:17:00,
2013-11-03 00:22:00,37.7,35.6,30.07,WNW,292,0.0,0.0,92,0.00,,---,0.00,VWS V14.01,2013-11-03 05:22:00,
2013-11-03 00:27:00,37.6,35.5,30.07,WNW,292,0.0,0.0,92,0.00,,---,0.00,VWS V14.01,2013-11-03 05:27:00,
2013-11-03 00:32:00,37.5,35.7,30.07,WNW,292,0.0,0.0,93,0.00,,---,0.00,VWS V14.01,2013-11-03 05:32:00,
2013-11-03 00:37:00,37.3,35.5,30.07,WNW,292,0.0,0.0,93,0.00,,---,0.00,VWS V14.01,2013-11-03 05:37:00,
2013-11-03 00:42:00,37.1,35.0,30.07,WNW,292,0.0,0.0,92,0.00,,---,0.00,VWS V14.01,2013-11-03 05:42:00,
2013-11-03 00:47:00,37.1,35.3,30.07,WNW,292,0.0,0.0,93,0.00,,---,0.00,VWS V14.01,2013-11-03 05:47:00,
2013-11-03 00:52:00,37.0,35.2,30.07,WNW,292,0.0,0.0,93,0.00,,---,0.00,VWS V14.01,2013-11-03 05:52:00,
2013-11-03 00:57:00,37.0,35.2,30.07,WNW,292,0.0,0.0,93,0.00,,---,0.00,VWS V14.01,2013-11-03 05:57:00,
2013-11-03 01:00:00,35.9,34.1,30.08,WNW,292,0.0,0.0,93,0.00,,---,0.00,VWS V14.01,2013-11-03 06:00:00,
2013-11-03 01:01:00,35.9,34.1,30.08,WNW,292,0.0,0.0,93,0.00,,---,0.00,VWS V14.01,2013-11-03 06:01:00,
2013-11-03 01:02:00,36.9,35.1,30.08,WNW,292,0.0,0.0,93,0.00,,---,0.00,VWS V14.01,2013-11-03 06:02:00,
2013-11-03 01:03:00,35.8,34.0,30.08,WNW,292,0.0,0.0,93,0.00,,---,0.00,VWS V14.01,2013-11-03 06:03:00,
2013-11-03 01:04:00,35.9,34.1,30.08,WNW,292,0.0,0.0,93,0.00,,---,0.00,VWS V14.01,2013-11-03 06:04:00,
2013-11-03 01:05:00,35.9,34.1,30.08,WNW,292,0.0,0.0,93,0.00,,---,0.00,VWS V14.01,2013-11-03 06:05:00,
2013-11-03 01:06:00,35.9,34.1,30.08,WNW,292,0.0,0.0,93,0.00,,---,0.00,VWS V14.01,2013-11-03 06:06:00,
2013-11-03 01:07:00,36.9,35.1,30.08,WNW,292,0.0,0.0,93,0.00,,---,0.00,VWS V14.01,2013-11-03 06:07:00,
2013-11-03 01:08:00,35.9,34.1,30.08,WNW,292,0.0,0.0,93,0.00,,---,0.00,VWS V14.01,2013-11-03 06:08:00,
2013-11-03 01:09:00,35.9,34.1,30.08,WNW,292,0.0,0.0,93,0.00,,---,0.00,VWS V14.01,2013-11-03 06:09:00,
2013-11-03 01:10:00,35.9,34.1,30.08,WNW,292,0.0,0.0,93,0.00,,---,0.00,VWS V14.01,2013-11-03 06:10:00,
2013-11-03 01:12:00,36.8,35.0,30.08,WNW,292,0.0,0.0,93,0.00,,---,0.00,VWS V14.01,2013-11-03 06:12:00,
2013-11-03 01:17:00,36.6,34.8,30.07,WNW,292,0.0,0.0,93,0.00,,---,0.00,VWS V14.01,2013-11-03 06:17:00,
2013-11-03 01:22:00,36.4,34.6,30.07,WNW,292,0.0,0.0,93,0.00,,---,0.00,VWS V14.01,2013-11-03 06:22:00,
2013-11-03 01:27:00,36.3,34.5,30.07,WNW,292,0.0,0.0,93,0.00,,---,0.00,VWS V14.01,2013-11-03 06:27:00,
2013-11-03 01:32:00,36.2,34.4,30.07,WNW,292,0.0,0.0,93,0.00,,---,0.00,VWS V14.01,2013-11-03 06:32:00,
2013-11-03 01:37:00,36.2,34.4,30.07,WNW,292,0.0,0.0,93,0.00,,---,0.00,VWS V14.01,2013-11-03 06:37:00,
2013-11-03 01:42:00,36.2,34.4,30.07,WNW,292,0.0,0.0,93,0.00,,---,0.00,VWS V14.01,2013-11-03 06:42:00,
2013-11-03 01:47:00,36.1,34.3,30.08,WNW,292,0.0,0.0,93,0.00,,---,0.00,VWS V14.01,2013-11-03 06:47:00,
2013-11-03 01:52:00,36.0,34.2,30.08,WNW,292,0.0,0.0,93,0.00,,---,0.00,VWS V14.01,2013-11-03 06:52:00,
2013-11-03 01:57:00,35.9,34.1,30.08,WNW,292,0.0,0.0,93,0.00,,---,0.00,VWS V14.01,2013-11-03 06:57:00,
2013-11-03 01:02:00,35.9,34.1,30.08,WNW,292,0.0,0.0,93,0.00,,---,0.00,VWS V14.01,2013-11-03 07:02:00,
2013-11-03 01:07:00,35.9,34.1,30.08,WNW,292,0.0,0.0,93,0.00,,---,0.00,VWS V14.01,2013-11-03 07:07:00,
2013-11-03 01:12:00,35.9,34.1,30.08,WNW,292,0.0,0.0,93,0.00,,---,0.00,VWS V14.01,2013-11-03 07:12:00,
2013-11-03 01:17:00,35.9,34.1,30.09,WNW,292,0.0,0.0,93,0.00,,---,0.00,VWS V14.01,2013-11-03 07:17:00,
2013-11-03 01:22:00,35.8,34.0,30.09,WNW,292,0.0,0.0,93,0.00,,---,0.00,VWS V14.01,2013-11-03 07:22:00,
2013-11-03 01:27:00,35.7,33.9,30.09,WNW,292,0.0,0.0,93,0.00,,---,0.00,VWS V14.01,2013-11-03 07:27:00,
2013-11-03 01:32:00,35.6,33.8,30.09,WNW,292,0.0,0.0,93,0.00,,---,0.00,VWS V14.01,2013-11-03 07:32:00,
2013-11-03 01:37:00,35.6,34.0,30.09,WNW,292,0.0,0.0,94,0.00,,---,0.00,VWS V14.01,2013-11-03 07:37:00,
2013-11-03 01:42:00,35.7,34.2,30.09,WNW,292,0.0,0.0,94,0.00,,---,0.00,VWS V14.01,2013-11-03 07:42:00,
2013-11-03 01:47:00,35.8,34.2,30.09,WNW,292,0.0,0.0,94,0.00,,---,0.00,VWS V14.01,2013-11-03 07:47:00,
2013-11-03 01:52:00,35.9,34.3,30.09,WNW,292,0.0,0.0,94,0.00,,---,0.00,VWS V14.01,2013-11-03 07:52:00,
2013-11-03 01:57:00,35.7,34.2,30.09,WNW,292,0.0,0.0,94,0.00,,---,0.00,VWS V14.01,2013-11-03 07:57:00,
2013-11-03 02:02:00,35.6,34.0,30.09,WNW,292,0.0,0.0,94,0.00,,---,0.00,VWS V14.01,2013-11-03 08:02:00,
2013-11-03 02:07:00,35.5,34.0,30.09,WNW,292,0.0,0.0,94,0.00,,---,0.00,VWS V14.01,2013-11-03 08:07:00,
2013-11-03 02:12:00,35.3,33.8,30.09,WNW,292,0.0,0.0,94,0.00,,---,0.00,VWS V14.01,2013-11-03 08:12:00,
2013-11-03 02:17:00,35.2,33.4,30.10,WNW,292,0.0,0.0,93,0.00,,---,0.00,VWS V14.01,2013-11-03 08:17:00,
2013-11-03 02:22:00,35.1,33.3,30.10,WNW,292,0.0,0.0,93,0.00,,---,0.00,VWS V14.01,2013-11-03 08:22:00,
2013-11-03 02:27:00,35.0,33.5,30.10,WNW,292,0.0,0.0,94,0.00,,---,0.00,VWS V14.01,2013-11-03 08:27:00,
2013-11-03 02:32:00,34.8,33.0,30.10,WNW,292,0.0,0.0,93,0.00,,---,0.00,VWS V14.01,2013-11-03 08:32:00,
2013-11-03 02:37:00,34.7,32.9,30.10,WNW,292,0.0,0.0,93,0.00,,---,0.00,VWS V14.01,2013-11-03 08:37:00,
2013-11-03 02:42:00,34.6,33.0,30.10,WNW,292,0.0,0.0,94,0.00,,---,0.00,VWS V14.01,2013-11-03 08:42:00,
2013-11-03 02:47:00,34.4,32.9,30.10,WNW,292,0.0,0.0,94,0.00,,---,0.00,VWS V14.01,2013-11-03 08:47:00,
2013-11-03 02:52:00,34.4,32.9,30.10,WNW,292,0.0,0.0,94,0.00,,---,0.00,VWS V14.01,2013-11-03 08:52:00,
2013-11-03 02:57:00,34.4,32.9,30.10,WNW,292,0.0,0.0,94,0.00,,---,0.00,VWS V14.01,2013-11-03 08:57:00,
2013-11-03 03:02:00,34.4,32.9,30.10,WNW,292,0.0,0.0,94,0.00,,---,0.00,VWS V14.01,2013-11-03 09:02:00,
2013-11-03 03:07:00,34.3,32.8,30.10,WNW,292,0.0,0.0,94,0.00,,---,0.00,VWS V14.01,2013-11-03 09:07:00,
2013-11-03 03:12:00,34.2,32.7,30.10,WNW,292,0.0,0.0,94,0.00,,---,0.00,VWS V14.01,2013-11-03 09:12:00,
2013-11-03 03:17:00,34.2,32.7,30.11,WNW,292,0.0,0.0,94,0.00,,---,0.00,VWS V14.01,2013-11-03 09:17:00,
2013-11-03 03:22:00,34.1,32.6,30.11,WNW,292,0.0,0.0,94,0.00,,---,0.00,VWS V14.01,2013-11-03 09:22:00,
2013-11-03 03:27:00,33.9,32.4,30.11,WNW,292,0.0,0.0,94,0.00,,---,0.00,VWS V14.01,2013-11-03 09:27:00,
2013-11-03 03:32:00,33.9,32.4,30.11,WNW,292,0.0,0.0,94,0.00,,---,0.00,VWS V14.01,2013-11-03 09:32:00,
2013-11-03 03:37:00,33.8,32.3,30.11,WNW,292,0.0,0.0,94,0.00,,---,0.00,VWS V14.01,2013-11-03 09:37:00,
2013-11-03 03:42:00,33.8,32.3,30.11,WNW,292,0.0,0.0,94,0.00,,---,0.00,VWS V14.01,2013-11-03 09:42:00,
2013-11-03 03:47:00,33.6,32.1,30.11,WNW,292,0.0,0.0,94,0.00,,---,0.00,VWS V14.01,2013-11-03 09:47:00,
2013-11-03 03:52:00,33.5,32.0,30.11,WNW,292,0.0,0.0,94,0.00,,---,0.00,VWS V14.01,2013-11-03 09:52:00,
2013-11-03 03:57:00,33.3,31.8,30.11,WNW,292,0.0,0.0,94,0.00,,---,0.00,VWS V14.01,2013-11-03 09:57:00,
2013-11-03 04:02:00,33.3,31.8,30.12,WNW,292,0.0,0.0,94,0.00,,---,0.00,VWS V14.01,2013-11-03 10:02:00,
2013-11-03 04:07:00,33.3,31.8,30.12,WNW,292,0.0,0.0,94,0.00,,---,0.00,VWS V14.01,2013-11-03 10:07:00,
2013-11-03 04:12:00,33.3,31.8,30.12,WNW,292,0.0,0.0,94,0.00,,---,0.00,VWS V14.01,2013-11-03 10:12:00,
2013-11-03 04:17:00,33.2,31.7,30.12,WNW,292,0.0,0.0,94,0.00,,---,0.00,VWS V14.01,2013-11-03 10:17:00,
2013-11-03 04:22:00,33.1,31.6,30.12,WNW,292,0.0,0.0,94,0.00,,---,0.00,VWS V14.01,2013-11-03 10:22:00,
2013-11-03 04:27:00,32.9,31.4,30.12,WNW,292,0.0,0.0,94,0.00,,---,0.00,VWS V14.01,2013-11-03 10:27:00,
2013-11-03 04:32:00,32.9,31.4,30.13,WNW,292,0.0,0.0,94,0.00,,---,0.00,VWS V14.01,2013-11-03 10:32:00,
2013-11-03 04:37:00,32.9,31.4,30.13,WNW,292,0.0,0.0,94,0.00,,---,0.00,VWS V14.01,2013-11-03 10:37:00,
2013-11-03 04:42:00,32.9,31.4,30.13,WNW,292,0.0,0.0,94,0.00,,---,0.00,VWS V14.01,2013-11-03 10:42:00,
2013-11-03 04:47:00,32.9,31.4,30.13,WNW,292,0.0,0.0,94,0.00,,---,0.00,VWS V14.01,2013-11-03 10:47:00,
2013-11-03 04:52:00,32.9,31.4,30.13,WNW,292,0.0,0.0,94,0.00,,---,0.00,VWS V14.01,2013-11-03 10:52:00,
2013-11-03 04:57:00,32.8,31.3,30.13,WNW,292,0.0,0.0,94,0.00,,---,0.00,VWS V14.01,2013-11-03 10:57:00,
2013-11-03 05:02:00,32.8,31.3,30.14,WNW,292,0.0,0.0,94,0.00,,---,0.00,VWS V14.01,2013-11-03 11:02:00,
2013-11-03 05:07:00,32.8,31.3,30.14,WNW,292,0.0,0.0,94,0.00,,---,0.00,VWS V14.01,2013-11-03 11:07:00,
2013-11-03 05:12:00,32.7,31.2,30.14,WNW,292,0.0,0.0,94,0.00,,---,0.00,VWS V14.01,2013-11-03 11:12:00,
2013-11-03 05:17:00,32.7,31.2,30.15,WNW,292,0.0,0.0,94,0.00,,---,0.00,VWS V14.01,2013-11-03 11:17:00,
2013-11-03 05:22:00,32.6,31.1,30.15,WNW,292,0.0,0.0,94,0.00,,---,0.00,VWS V14.01,2013-11-03 11:22:00,
2013-11-03 05:27:00,32.6,31.1,30.15,WNW,292,0.0,0.0,94,0.00,,---,0.00,VWS V14.01,2013-11-03 11:27:00,
2013-11-03 05:32:00,32.6,31.1,30.15,WNW,292,0.0,0.0,94,0.00,,---,0.00,VWS V14.01,2013-11-03 11:32:00,
2013-11-03 05:37:00,32.6,31.1,30.15,WNW,292,0.0,0.0,94,0.00,,---,0.00,VWS V14.01,2013-11-03 11:37:00,
2013-11-03 05:42:00,32.6,31.1,30.15,WNW,292,0.0,0.0,94,0.00,,---,0.00,VWS V14.01,2013-11-03 11:42:00,
2013-11-03 05:47:00,32.4,30.9,30.15,WNW,292,0.0,0.0,94,0.00,,---,0.00,VWS V14.01,2013-11-03 11:47:00,
2013-11-03 05:52:00,32.3,30.8,30.15,WNW,292,0.0,0.0,94,0.00,,---,0.00,VWS V14.01,2013-11-03 11:52:00,
2013-11-03 05:57:00,32.2,30.7,30.15,WNW,292,0.0,0.0,94,0.00,,---,0.00,VWS V14.01,2013-11-03 11:57:00,
2013-11-03 06:02:00,32.2,30.7,30.16,WNW,292,0.0,0.0,94,0.00,,---,0.00,VWS V14.01,2013-11-03 12:02:00,
2013-11-03 06:07:00,32.2,30.7,30.16,WNW,292,0.0,0.0,94,0.00,,---,0.00,VWS V14.01,2013-11-03 12:07:00,
2013-11-03 06:12:00,32.2,30.7,30.16,WNW,292,0.0,0.0,94,0.00,,---,0.00,VWS V14.01,2013-11-03 12:12:00,
2013-11-03 06:17:00,32.2,30.7,30.16,WNW,292,0.0,0.0,94,0.00,,---,0.00,VWS V14.01,2013-11-03 12:17:00,
2013-11-03 06:22:00,32.2,30.7,30.16,WNW,292,0.0,0.0,94,0.00,,---,0.00,VWS V14.01,2013-11-03 12:22:00,
2013-11-03 06:27:00,32.2,30.7,30.16,WNW,292,0.0,0.0,94,0.00,,---,0.00,VWS V14.01,2013-11-03 12:27:00,
2013-11-03 06:32:00,32.1,30.6,30.17,WNW,292,0.0,0.0,94,0.00,,---,0.00,VWS V14.01,2013-11-03 12:32:00,
2013-11-03 06:37:00,32.1,30.6,30.17,WNW,292,0.0,0.0,94,0.00,,---,0.00,VWS V14.01,2013-11-03 12:37:00,
2013-11-03 06:42:00,32.0,30.5,30.17,WNW,292,0.0,0.0,94,0.00,,---,0.00,VWS V14.01,2013-11-03 12:42:00,
2013-11-03 06:47:00,32.0,30.5,30.18,WNW,292,0.0,0.0,94,0.00,,---,0.00,VWS V14.01,2013-11-03 12:47:00,
2013-11-03 06:52:00,32.2,30.7,30.18,WNW,292,0.0,0.0,94,0.00,,---,0.00,VWS V14.01,2013-11-03 12:52:00,
2013-11-03 06:57:00,32.4,30.9,30.18,WNW,292,0.0,0.0,94,0.00,,---,0.00,VWS V14.01,2013-11-03 12:57:00,
2013-11-03 07:02:00,32.5,31.0,30.18,WNW,292,0.0,0.0,94,0.00,,---,0.00,VWS V14.01,2013-11-03 13:02:00,
2013-11-03 07:07:00,32.8,31.3,30.18,WNW,292,0.0,0.0,94,0.00,,---,0.00,VWS V14.01,2013-11-03 13:07:00,
2013-11-03 07:12:00,33.2,31.7,30.18,WNW,292,0.0,0.0,94,0.00,,---,0.00,VWS V14.01,2013-11-03 13:12:00,
2013-11-03 07:17:00,33.6,32.3,30.19,WNW,292,0.0,0.0,95,0.00,,---,0.00,VWS V14.01,2013-11-03 13:17:00,
2013-11-03 07:22:00,33.9,32.6,30.19,WNW,292,0.0,0.0,95,0.00,,---,0.00,VWS V14.01,2013-11-03 13:22:00,
2013-11-03 07:27:00,34.2,32.9,30.19,WNW,292,0.0,0.0,95,0.00,,---,0.00,VWS V14.01,2013-11-03 13:27:00,
2013-11-03 07:32:00,35.0,33.7,30.19,WNW,292,0.0,0.0,95,0.00,,---,0.00,VWS V14.01,2013-11-03 13:32:00,
2013-11-03 07:37:00,36.0,34.7,30.19,WNW,292,0.0,0.0,95,0.00,,---,0.00,VWS V14.01,2013-11-03 13:37:00,
2013-11-03 07:42:00,36.9,35.6,30.19,WNW,292,0.0,0.0,95,0.00,,---,0.00,VWS V14.01,2013-11-03 13:42:00,
2013-11-03 07:47:00,37.5,36.2,30.19,WNW,292,0.0,0.0,95,0.00,,---,0.00,VWS V14.01,2013-11-03 13:47:00,
2013-11-03 07:52:00,38.0,36.7,30.19,WNW,292,0.0,0.0,95,0.00,,---,0.00,VWS V14.01,2013-11-03 13:52:00,
2013-11-03 07:57:00,38.5,37.2,30.19,WNW,292,0.0,0.0,95,0.00,,---,0.00,VWS V14.01,2013-11-03 13:57:00,
2013-11-03 08:02:00,39.0,37.7,30.20,WNW,292,0.0,0.0,95,0.00,,---,0.00,VWS V14.01,2013-11-03 14:02:00,
2013-11-03 08:07:00,39.3,38.0,30.20,WNW,292,0.0,0.0,95,0.00,,---,0.00,VWS V14.01,2013-11-03 14:07:00,
2013-11-03 08:12:00,39.7,38.4,30.20,WNW,292,0.0,0.0,95,0.00,,---,0.00,VWS V14.01,2013-11-03 14:12:00,
2013-11-03 08:17:00,40.5,39.2,30.21,WNW,292,0.0,0.0,95,0.00,,---,0.00,VWS V14.01,2013-11-03 14:17:00,
2013-11-03 08:22:00,41.1,39.8,30.21,WNW,292,0.0,0.0,95,0.00,,---,0.00,VWS V14.01,2013-11-03 14:22:00,
2013-11-03 08:27:00,41.8,40.8,30.21,WNW,292,0.0,1.0,96,0.00,,---,0.00,VWS V14.01,2013-11-03 14:27:00,
2013-11-03 08:32:00,42.4,41.3,30.21,WNW,292,0.0,0.0,96,0.00,,---,0.00,VWS V14.01,2013-11-03 14:32:00,
2013-11-03 08:37:00,43.0,41.9,30.21,WNW,292,0.0,0.0,96,0.00,,---,0.00,VWS V14.01,2013-11-03 14:37:00,
2013-11-03 08:42:00,43.5,42.2,30.21,ENE,59,0.0,2.0,95,0.00,,---,0.00,VWS V14.01,2013-11-03 14:42:00,
2013-11-03 08:47:00,43.7,42.6,30.21,ENE,59,0.0,2.0,96,0.00,,---,0.00,VWS V14.01,2013-11-03 14:47:00,
2013-11-03 08:52:00,44.0,42.7,30.21,East,82,1.0,2.0,95,0.00,,---,0.00,VWS V14.01,2013-11-03 14:52:00,
2013-11-03 08:57:00,44.5,43.2,30.21,East,80,0.0,2.0,95,0.00,,---,0.00,VWS V14.01,2013-11-03 14:57:00,
2013-11-03 09:02:00,45.1,43.8,30.21,ENE,68,2.0,2.0,95,0.00,,---,0.00,VWS V14.01,2013-11-03 15:02:00,
2013-11-03 09:08:00,45.6,44.2,30.21,East,93,0.0,2.0,95,0.00,,---,0.00,VWS V14.01,2013-11-03 15:08:00,
2013-11-03 09:13:00,46.2,44.3,30.21,East,84,1.0,3.0,93,0.00,,---,0.00,VWS V14.01,2013-11-03 15:13:00,
2013-11-03 09:18:00,46.6,44.4,30.21,East,83,0.0,3.0,92,0.00,,---,0.00,VWS V14.01,2013-11-03 15:18:00,
2013-11-03 09:23:00,47.1,44.3,30.21,SSE,161,0.0,3.0,90,0.00,,---,0.00,VWS V14.01,2013-11-03 15:23:00,
2013-11-03 09:28:00,47.8,44.4,30.21,SSE,165,0.0,3.0,88,0.00,,---,0.00,VWS V14.01,2013-11-03 15:28:00,
2013-11-03 09:33:00,48.6,44.0,30.21,South,186,0.0,2.0,84,0.01,,---,0.01,VWS V14.01,2013-11-03 15:33:00,
2013-11-03 09:38:00,49.6,44.0,30.21,South,171,0.0,4.0,81,0.01,,---,0.01,VWS V14.01,2013-11-03 15:38:00,
2013-11-03 09:43:00,49.9,43.3,30.21,SSW,200,3.0,4.0,78,0.01,,---,0.01,VWS V14.01,2013-11-03 15:43:00,
2013-11-03 09:48:00,50.5,42.9,30.21,East,92,3.0,4.0,75,0.01,,---,0.01,VWS V14.01,2013-11-03 15:48:00,
2013-11-03 09:53:00,50.8,39.5,30.21,ENE,77,0.0,5.0,65,0.01,,---,0.01,VWS V14.01,2013-11-03 15:53:00,
2013-11-03 09:58:00,51.0,40.1,30.21,ENE,70,0.0,5.0,66,0.01,,---,0.01,VWS V14.01,2013-11-03 15:58:00,
2013-11-03 10:03:00,50.8,40.6,30.21,ENE,61,0.0,0.0,68,0.01,,---,0.01,VWS V14.01,2013-11-03 16:03:00,
2013-11-03 10:08:00,51.1,40.5,30.21,NE,35,0.0,4.0,67,0.01,,---,0.01,VWS V14.01,2013-11-03 16:08:00,
2013-11-03 10:13:00,51.5,39.7,30.21,ENE,69,0.0,4.0,64,0.01,,---,0.01,VWS V14.01,2013-11-03 16:13:00,
2013-11-03 10:18:00,51.9,39.7,30.21,East,81,0.0,4.0,63,0.01,,---,0.01,VWS V14.01,2013-11-03 16:18:00,
2013-11-03 10:23:00,52.2,39.2,30.21,ENE,74,0.0,5.0,61,0.01,,---,0.01,VWS V14.01,2013-11-03 16:23:00,
2013-11-03 10:28:00,52.6,40.0,30.21,East,93,0.0,5.0,62,0.01,,---,0.01,VWS V14.01,2013-11-03 16:28:00,
2013-11-03 10:33:00,53.2,38.4,30.20,East,87,0.0,1.0,57,0.00,,---,0.01,VWS V14.01,2013-11-03 16:33:00,
2013-11-03 10:38:00,53.3,38.5,30.20,ENE,59,5.0,5.0,57,0.00,,---,0.01,VWS V14.01,2013-11-03 16:38:00,
2013-11-03 10:43:00,53.2,38.4,30.20,ENE,65,2.0,5.0,57,0.00,,---,0.01,VWS V14.01,2013-11-03 16:43:00,
2013-11-03 10:48:00,52.9,37.7,30.20,NE,40,1.0,6.0,56,0.00,,---,0.01,VWS V14.01,2013-11-03 16:48:00,
2013-11-03 10:53:00,52.8,37.5,30.20,East,101,4.0,7.0,56,0.00,,---,0.01,VWS V14.01,2013-11-03 16:53:00,
2013-11-03 10:58:00,53.7,38.8,30.20,East,97,3.0,7.0,57,0.00,,---,0.01,VWS V14.01,2013-11-03 16:58:00,
2013-11-03 11:03:00,54.6,39.7,30.19,SSE,166,0.0,1.0,57,0.00,,---,0.01,VWS V14.01,2013-11-03 17:03:00,
2013-11-03 11:08:00,55.2,38.9,30.19,ENE,66,0.0,4.0,54,0.00,,---,0.01,VWS V14.01,2013-11-03 17:08:00,
2013-11-03 11:13:00,55.0,39.2,30.19,East,92,0.0,6.0,55,0.00,,---,0.01,VWS V14.01,2013-11-03 17:13:00,
2013-11-03 11:18:00,54.7,37.9,30.19,East,82,0.0,6.0,53,0.00,,---,0.01,VWS V14.01,2013-11-03 17:18:00,
2013-11-03 11:23:00,54.4,37.2,30.19,NE,54,5.0,9.0,52,0.00,,---,0.01,VWS V14.01,2013-11-03 17:23:00,
2013-11-03 11:28:00,54.2,38.4,30.19,ENE,69,0.0,9.0,55,0.00,,---,0.01,VWS V14.01,2013-11-03 17:28:00,
2013-11-03 11:33:00,55.5,39.1,30.18,ENE,73,0.0,1.0,54,0.00,,---,0.01,VWS V14.01,2013-11-03 17:33:00,
2013-11-03 11:38:00,55.6,38.8,30.18,East,84,0.0,4.0,53,0.00,,---,0.01,VWS V14.01,2013-11-03 17:38:00,
2013-11-03 11:43:00,55.8,38.9,30.18,East,94,0.0,8.0,53,0.00,,---,0.01,VWS V14.01,2013-11-03 17:43:00,
2013-11-03 11:48:00,56.2,40.3,30.17,SSE,167,0.0,8.0,55,0.00,,---,0.01,VWS V14.01,2013-11-03 17:48:00,
2013-11-03 11:53:00,56.0,38.6,30.17,NE,48,1.0,8.0,52,0.00,,---,0.01,VWS V14.01,2013-11-03 17:53:00,
2013-11-03 11:58:00,55.7,39.3,30.17,NW,319,1.0,8.0,54,0.00,,---,0.01,VWS V14.01,2013-11-03 17:58:00,
2013-11-03 12:03:00,56.0,39.1,30.17,SSW,211,0.0,1.0,53,0.00,,---,0.01,VWS V14.01,2013-11-03 18:03:00,
2013-11-03 12:08:00,56.5,39.6,30.17,SE,126,0.0,3.0,53,0.00,,---,0.01,VWS V14.01,2013-11-03 18:08:00,
2013-11-03 12:13:00,56.7,39.3,30.17,East,101,0.0,4.0,52,0.00,,---,0.01,VWS V14.01,2013-11-03 18:13:00,
2013-11-03 12:18:00,57.1,38.7,30.16,East,100,3.0,5.0,50,0.00,,---,0.01,VWS V14.01,2013-11-03 18:18:00,
2013-11-03 12:23:00,57.0,38.6,30.16,ENE,62,0.0,9.0,50,0.00,,---,0.01,VWS V14.01,2013-11-03 18:23:00,
2013-11-03 12:28:00,57.0,38.6,30.16,East,84,3.0,9.0,50,0.00,,---,0.01,VWS V14.01,2013-11-03 18:28:00,
2013-11-03 12:33:00,56.3,38.4,30.15,East,82,0.0,2.0,51,0.00,,---,0.01,VWS V14.01,2013-11-03 18:33:00,
2013-11-03 12:38:00,56.2,37.8,30.15,ENE,65,3.0,4.0,50,0.00,,---,0.01,VWS V14.01,2013-11-03 18:38:00,
2013-11-03 12:43:00,55.7,37.4,30.15,East,101,2.0,7.0,50,0.00,,---,0.01,VWS V14.01,2013-11-03 18:43:00,
2013-11-03 12:48:00,55.9,36.5,30.15,East,82,0.0,7.0,48,0.00,,---,0.01,VWS V14.01,2013-11-03 18:48:00,
2013-11-03 12:53:00,55.9,38.0,30.15,ENE,67,0.0,7.0,51,0.00,,---,0.01,VWS V14.01,2013-11-03 18:53:00,
2013-11-03 12:58:00,56.5,37.6,30.15,ENE,67,0.0,7.0,49,0.00,,---,0.01,VWS V14.01,2013-11-03 18:58:00,
2013-11-03 13:03:00,56.6,38.7,30.14,East,90,0.0,0.0,51,0.00,,---,0.01,VWS V14.01,2013-11-03 19:03:00,
2013-11-03 13:08:00,56.4,38.0,30.14,South,175,0.0,5.0,50,0.00,,---,0.01,VWS V14.01,2013-11-03 19:08:00,
2013-11-03 13:13:00,57.0,38.0,30.14,SW,215,0.0,6.0,49,0.00,,---,0.01,VWS V14.01,2013-11-03 19:13:00,
2013-11-03 13:18:00,57.7,39.2,30.14,SSE,164,2.0,6.0,50,0.00,,---,0.01,VWS V14.01,2013-11-03 19:18:00,
2013-11-03 13:23:00,58.0,38.4,30.14,East,97,1.0,6.0,48,0.00,,---,0.01,VWS V14.01,2013-11-03 19:23:00,
2013-11-03 13:28:00,57.8,38.8,30.14,NE,37,0.0,6.0,49,0.00,,---,0.01,VWS V14.01,2013-11-03 19:28:00,
2013-11-03 13:33:00,57.3,38.3,30.13,NE,46,1.0,6.0,49,0.00,,---,0.01,VWS V14.01,2013-11-03 19:33:00,
2013-11-03 13:38:00,57.2,39.2,30.13,East,84,1.0,6.0,51,0.00,,---,0.01,VWS V14.01,2013-11-03 19:38:00,
2013-11-03 13:43:00,57.8,39.8,30.13,ESE,119,0.0,6.0,51,0.00,,---,0.01,VWS V14.01,2013-11-03 19:43:00,
2013-11-03 13:48:00,58.4,39.3,30.12,ENE,67,0.0,6.0,49,0.00,,---,0.01,VWS V14.01,2013-11-03 19:48:00,
2013-11-03 13:53:00,59.0,39.4,30.12,SSE,147,0.0,6.0,48,0.00,,---,0.01,VWS V14.01,2013-11-03 19:53:00,
2013-11-03 13:58:00,59.0,39.9,30.12,East,82,0.0,6.0,49,0.00,,---,0.01,VWS V14.01,2013-11-03 19:58:00,
2013-11-03 14:03:00,59.0,38.8,30.12,SSE,164,0.0,1.0,47,0.00,,---,0.01,VWS V14.01,2013-11-03 20:03:00,
2013-11-03 14:08:00,58.3,39.2,30.12,ENE,78,0.0,6.0,49,0.00,,---,0.01,VWS V14.01,2013-11-03 20:08:00,
2013-11-03 14:13:00,58.5,39.9,30.12,East,83,3.0,6.0,50,0.00,,---,0.01,VWS V14.01,2013-11-03 20:13:00,
2013-11-03 14:18:00,57.6,38.6,30.12,East,94,7.0,9.0,49,0.00,,---,0.01,VWS V14.01,2013-11-03 20:18:00,
2013-11-03 14:23:00,57.3,39.3,30.12,ESE,103,1.0,9.0,51,0.00,,---,0.01,VWS V14.01,2013-11-03 20:23:00,
2013-11-03 14:28:00,57.7,38.7,30.12,East,87,0.0,9.0,49,0.00,,---,0.01,VWS V14.01,2013-11-03 20:28:00,
2013-11-03 14:33:00,58.0,39.0,30.11,East,88,0.0,0.0,49,0.00,,---,0.01,VWS V14.01,2013-11-03 20:33:00,
2013-11-03 14:38:00,58.1,39.1,30.11,ENE,74,0.0,1.0,49,0.00,,---,0.01,VWS V14.01,2013-11-03 20:38:00,
2013-11-03 14:43:00,58.0,37.9,30.11,East,89,0.0,4.0,47,0.00,,---,0.01,VWS V14.01,2013-11-03 20:43:00,
2013-11-03 14:48:00,57.5,37.5,30.11,ENE,59,0.0,4.0,47,0.00,,---,0.01,VWS V14.01,2013-11-03 20:48:00,
2013-11-03 14:53:00,57.2,36.6,30.11,SSE,161,2.0,7.0,46,0.00,,---,0.01,VWS V14.01,2013-11-03 20:53:00,
2013-11-03 14:58:00,57.1,38.1,30.11,SE,126,0.0,7.0,49,0.00,,---,0.01,VWS V14.01,2013-11-03 20:58:00,
2013-11-03 15:03:00,57.0,37.0,30.11,East,85,0.0,2.0,47,0.00,,---,0.01,VWS V14.01,2013-11-03 21:03:00,
2013-11-03 15:08:00,56.9,38.0,30.11,ENE,70,0.0,3.0,49,0.00,,---,0.01,VWS V14.01,2013-11-03 21:08:00,
2013-11-03 15:13:00,56.8,37.3,30.11,ENE,68,0.0,6.0,48,0.00,,---,0.01,VWS V14.01,2013-11-03 21:13:00,
2013-11-03 15:18:00,56.7,37.8,30.09,East,90,2.0,9.0,49,0.00,,---,0.01,VWS V14.01,2013-11-03 21:18:00,
2013-11-03 15:23:00,56.7,37.8,30.09,ENE,69,1.0,9.0,49,0.00,,---,0.01,VWS V14.01,2013-11-03 21:23:00,
2013-11-03 15:28:00,56.7,37.8,30.09,East,85,2.0,9.0,49,0.00,,---,0.01,VWS V14.01,2013-11-03 21:28:00,
2013-11-03 15:33:00,56.6,37.7,30.09,East,85,0.0,0.0,49,0.00,,---,0.01,VWS V14.01,2013-11-03 21:33:00,
2013-11-03 15:38:00,56.4,37.0,30.09,East,88,0.0,9.0,48,0.00,,---,0.01,VWS V14.01,2013-11-03 21:38:00,
2013-11-03 15:43:00,56.3,37.4,30.09,East,84,0.0,9.0,49,0.00,,---,0.01,VWS V14.01,2013-11-03 21:43:00,
2013-11-03 15:48:00,56.1,37.7,30.09,ENE,74,0.0,9.0,50,0.00,,---,0.01,VWS V14.01,2013-11-03 21:48:00,
2013-11-03 15:53:00,55.9,37.0,30.09,East,84,0.0,9.0,49,0.00,,---,0.01,VWS V14.01,2013-11-03 21:53:00,
2013-11-03 15:58:00,55.8,36.9,30.09,East,86,0.0,9.0,49,0.00,,---,0.01,VWS V14.01,2013-11-03 21:58:00,
2013-11-03 16:03:00,55.7,37.4,30.09,East,83,0.0,3.0,50,0.00,,---,0.01,VWS V14.01,2013-11-03 22:03:00,
2013-11-03 16:08:00,55.5,36.7,30.09,ESE,107,0.0,7.0,49,0.00,,---,0.01,VWS V14.01,2013-11-03 22:08:00,
2013-11-03 16:13:00,55.4,37.1,30.09,ESE,110,0.0,7.0,50,0.00,,---,0.01,VWS V14.01,2013-11-03 22:13:00,
2013-11-03 16:18:00,55.2,37.4,30.09,East,81,0.0,7.0,51,0.00,,---,0.01,VWS V14.01,2013-11-03 22:18:00,
2013-11-03 16:23:00,55.1,37.3,30.09,East,80,0.0,7.0,51,0.00,,---,0.01,VWS V14.01,2013-11-03 22:23:00,
2013-11-03 16:28:00,54.9,37.6,30.09,East,80,0.0,7.0,52,0.00,,---,0.01,VWS V14.01,2013-11-03 22:28:00,
2013-11-03 16:33:00,54.5,37.7,30.08,East,80,1.0,1.0,53,0.00,,---,0.01,VWS V14.01,2013-11-03 22:33:00,
2013-11-03 16:38:00,54.2,37.5,30.08,East,80,0.0,1.0,53,0.00,,---,0.01,VWS V14.01,2013-11-03 22:38:00,
2013-11-03 16:43:00,53.9,37.7,30.08,East,80,0.0,1.0,54,0.00,,---,0.01,VWS V14.01,2013-11-03 22:43:00,
2013-11-03 16:48:00,53.6,37.4,30.09,East,79,0.0,1.0,54,0.00,,---,0.01,VWS V14.01,2013-11-03 22:48:00,
2013-11-03 16:53:00,53.3,37.6,30.09,East,80,0.0,1.0,55,0.00,,---,0.01,VWS V14.01,2013-11-03 22:53:00,
2013-11-03 16:58:00,52.9,37.7,30.09,East,80,0.0,1.0,56,0.00,,---,0.01,VWS V14.01,2013-11-03 22:58:00,
2013-11-03 17:03:00,52.4,37.6,30.09,East,80,0.0,0.0,57,0.00,,---,0.01,VWS V14.01,2013-11-03 23:03:00,
2013-11-03 17:08:00,51.9,37.2,30.09,East,80,0.0,0.0,57,0.00,,---,0.01,VWS V14.01,2013-11-03 23:08:00,
2013-11-03 17:13:00,51.5,37.2,30.09,East,79,0.0,0.0,58,0.00,,---,0.01,VWS V14.01,2013-11-03 23:13:00,
2013-11-03 17:18:00,51.0,37.6,30.10,East,80,0.0,0.0,60,0.00,,---,0.01,VWS V14.01,2013-11-03 23:18:00,
2013-11-03 17:23:00,50.4,37.5,30.10,East,80,0.0,0.0,61,0.00,,---,0.01,VWS V14.01,2013-11-03 23:23:00,
2013-11-03 17:28:00,49.8,38.1,30.10,East,80,0.0,0.0,64,0.00,,---,0.01,VWS V14.01,2013-11-03 23:28:00,
2013-11-03 17:33:00,49.3,37.2,30.10,East,80,0.0,0.0,63,0.00,,---,0.01,VWS V14.01,2013-11-03 23:33:00,
2013-11-03 17:38:00,48.8,38.0,30.10,East,80,0.0,0.0,66,0.00,,---,0.01,VWS V14.01,2013-11-03 23:38:00,
2013-11-03 17:43:00,48.1,38.0,30.10,East,80,0.0,0.0,68,0.00,,---,0.01,VWS V14.01,2013-11-03 23:43:00,
2013-11-03 17:48:00,47.6,37.6,30.11,East,80,0.0,0.0,68,0.00,,---,0.01,VWS V14.01,2013-11-03 23:48:00,
2013-11-03 17:53:00,47.1,37.5,30.11,East,80,0.0,0.0,69,0.00,,---,0.01,VWS V14.01,2013-11-03 23:53:00,
2013-11-03 17:58:00,46.7,37.5,30.11,East,80,0.0,0.0,70,0.00,,---,0.01,VWS V14.01,2013-11-03 23:58:00,
2013-11-03 18:03:00,46.2,37.3,30.12,East,80,0.0,0.0,71,0.00,,---,0.01,VWS V14.01,2013-11-04 00:03:00,
2013-11-03 18:08:00,45.8,37.0,30.12,East,80,0.0,0.0,71,0.00,,---,0.01,VWS V14.01,2013-11-04 00:08:00,
2013-11-03 18:13:00,45.5,37.0,30.12,East,80,0.0,0.0,72,0.00,,---,0.01,VWS V14.01,2013-11-04 00:13:00,
2013-11-03 18:18:00,45.3,37.2,30.12,East,80,0.0,0.0,73,0.00,,---,0.01,VWS V14.01,2013-11-04 00:18:00,
2013-11-03 18:23:00,45.0,36.5,30.12,East,80,0.0,0.0,72,0.00,,---,0.01,VWS V14.01,2013-11-04 00:23:00,
2013-11-03 18:28:00,44.9,37.5,30.12,East,80,0.0,0.0,75,0.00,,---,0.01,VWS V14.01,2013-11-04 00:28:00,
2013-11-03 18:33:00,44.6,37.2,30.12,East,80,0.0,0.0,75,0.00,,---,0.01,VWS V14.01,2013-11-04 00:33:00,
2013-11-03 18:38:00,44.3,37.2,30.12,East,80,0.0,0.0,76,0.00,,---,0.01,VWS V14.01,2013-11-04 00:38:00,
2013-11-03 18:43:00,44.1,37.0,30.12,East,80,0.0,0.0,76,0.00,,---,0.01,VWS V14.01,2013-11-04 00:43:00,
2013-11-03 18:48:00,43.8,36.4,30.11,East,80,0.0,0.0,75,0.00,,---,0.01,VWS V14.01,2013-11-04 00:48:00,
2013-11-03 18:53:00,43.8,36.4,30.11,East,80,0.0,0.0,75,0.00,,---,0.01,VWS V14.01,2013-11-04 00:53:00,
2013-11-03 18:58:00,44.0,36.6,30.11,East,80,0.0,0.0,75,0.00,,---,0.01,VWS V14.01,2013-11-04 00:58:00,
2013-11-03 19:03:00,44.1,36.7,30.11,East,80,0.0,0.0,75,0.00,,---,0.01,VWS V14.01,2013-11-04 01:03:00,
2013-11-03 19:08:00,44.2,36.8,30.11,East,80,0.0,0.0,75,0.00,,---,0.01,VWS V14.01,2013-11-04 01:08:00,
2013-11-03 19:13:00,44.4,37.0,30.11,East,80,0.0,0.0,75,0.00,,---,0.01,VWS V14.01,2013-11-04 01:13:00,
2013-11-03 19:18:00,44.6,37.2,30.11,East,80,0.0,0.0,75,0.00,,---,0.01,VWS V14.01,2013-11-04 01:18:00,
2013-11-03 19:23:00,44.9,37.1,30.11,East,80,0.0,0.0,74,0.00,,---,0.01,VWS V14.01,2013-11-04 01:23:00,
2013-11-03 19:28:00,45.2,37.4,30.11,East,80,0.0,1.0,74,0.00,,---,0.01,VWS V14.01,2013-11-04 01:28:00,
2013-11-03 19:33:00,45.5,37.7,30.11,East,80,0.0,0.0,74,0.00,,---,0.01,VWS V14.01,2013-11-04 01:33:00,
2013-11-03 19:38:00,45.7,37.5,30.11,East,80,0.0,0.0,73,0.00,,---,0.01,VWS V14.01,2013-11-04 01:38:00,
2013-11-03 19:43:00,45.8,37.7,30.11,East,80,0.0,0.0,73,0.00,,---,0.01,VWS V14.01,2013-11-04 01:43:00,
2013-11-03 19:48:00,45.7,37.5,30.12,East,80,0.0,0.0,73,0.00,,---,0.01,VWS V14.01,2013-11-04 01:48:00,
2013-11-03 19:53:00,45.5,37.7,30.12,East,80,0.0,0.0,74,0.00,,---,0.01,VWS V14.01,2013-11-04 01:53:00,
2013-11-03 19:58:00,45.1,38.0,30.12,East,80,0.0,0.0,76,0.00,,---,0.01,VWS V14.01,2013-11-04 01:58:00,
2013-11-03 20:03:00,44.6,37.8,30.13,East,80,0.0,0.0,77,0.00,,---,0.01,VWS V14.01,2013-11-04 02:03:00,
2013-11-03 20:08:00,44.2,37.8,30.13,East,80,0.0,0.0,78,0.00,,---,0.01,VWS V14.01,2013-11-04 02:08:00,
2013-11-03 20:13:00,44.2,37.8,30.13,East,80,0.0,0.0,78,0.00,,---,0.01,VWS V14.01,2013-11-04 02:13:00,
2013-11-03 20:18:00,44.1,38.0,30.12,East,80,0.0,0.0,79,0.00,,---,0.01,VWS V14.01,2013-11-04 02:18:00,
2013-11-03 20:23:00,44.2,38.1,30.12,East,80,0.0,0.0,79,0.00,,---,0.01,VWS V14.01,2013-11-04 02:23:00,
2013-11-03 20:28:00,44.3,37.9,30.12,East,80,0.0,0.0,78,0.00,,---,0.01,VWS V14.01,2013-11-04 02:28:00,
2013-11-03 20:33:00,44.3,38.2,30.13,East,80,0.0,0.0,79,0.00,,---,0.01,VWS V14.01,2013-11-04 02:33:00,
2013-11-03 20:38:00,44.2,38.4,30.13,East,80,0.0,0.0,80,0.00,,---,0.01,VWS V14.01,2013-11-04 02:38:00,
2013-11-03 20:43:00,43.7,38.3,30.13,East,80,0.0,0.0,81,0.00,,---,0.01,VWS V14.01,2013-11-04 02:43:00,
2013-11-03 20:48:00,43.2,38.1,30.15,East,80,0.0,0.0,82,0.00,,---,0.01,VWS V14.01,2013-11-04 02:48:00,
2013-11-03 20:53:00,42.8,37.7,30.15,East,80,0.0,0.0,82,0.00,,---,0.01,VWS V14.01,2013-11-04 02:53:00,
2013-11-03 20:58:00,42.6,37.8,30.15,East,80,0.0,0.0,83,0.00,,---,0.01,VWS V14.01,2013-11-04 02:58:00,
2013-11-03 21:03:00,42.4,37.6,30.16,East,80,0.0,0.0,83,0.00,,---,0.01,VWS V14.01,2013-11-04 03:03:00,
2013-11-03 21:08:00,42.2,37.7,30.16,East,80,0.0,0.0,84,0.00,,---,0.01,VWS V14.01,2013-11-04 03:08:00,
2013-11-03 21:13:00,42.2,37.7,30.16,East,80,0.0,0.0,84,0.00,,---,0.01,VWS V14.01,2013-11-04 03:13:00,
2013-11-03 21:18:00,42.1,37.9,30.15,East,80,0.0,0.0,85,0.00,,---,0.01,VWS V14.01,2013-11-04 03:18:00,
2013-11-03 21:23:00,42.0,37.8,30.15,East,80,0.0,0.0,85,0.00,,---,0.01,VWS V14.01,2013-11-04 03:23:00,
2013-11-03 21:28:00,42.0,37.8,30.15,East,80,0.0,0.0,85,0.00,,---,0.01,VWS V14.01,2013-11-04 03:28:00,
2013-11-03 21:33:00,41.9,37.7,30.15,East,80,0.0,0.0,85,0.00,,---,0.01,VWS V14.01,2013-11-04 03:33:00,
2013-11-03 21:38:00,41.8,37.6,30.15,East,80,0.0,0.0,85,0.00,,---,0.01,VWS V14.01,2013-11-04 03:38:00,
2013-11-03 21:43:00,41.6,37.4,30.15,East,80,0.0,0.0,85,0.00,,---,0.01,VWS V14.01,2013-11-04 03:43:00,
2013-11-03 21:48:00,41.4,37.5,30.14,East,80,0.0,0.0,86,0.00,,---,0.01,VWS V14.01,2013-11-04 03:48:00,
2013-11-03 21:53:00,41.5,37.6,30.14,East,80,0.0,0.0,86,0.00,,---,0.01,VWS V14.01,2013-11-04 03:53:00,
2013-11-03 21:58:00,41.9,38.0,30.14,East,80,0.0,0.0,86,0.00,,---,0.01,VWS V14.01,2013-11-04 03:58:00,
2013-11-03 22:03:00,42.3,38.1,30.15,East,80,0.0,0.0,85,0.00,,---,0.01,VWS V14.01,2013-11-04 04:03:00,
2013-11-03 22:08:00,42.5,38.3,30.15,East,80,0.0,0.0,85,0.00,,---,0.01,VWS V14.01,2013-11-04 04:08:00,
2013-11-03 22:13:00,42.5,38.3,30.15,East,80,0.0,0.0,85,0.00,,---,0.01,VWS V14.01,2013-11-04 04:13:00,
2013-11-03 22:18:00,42.7,38.2,30.14,East,80,0.0,0.0,84,0.00,,---,0.01,VWS V14.01,2013-11-04 04:18:00,
2013-11-03 22:23:00,42.9,38.4,30.14,East,80,0.0,0.0,84,0.00,,---,0.01,VWS V14.01,2013-11-04 04:23:00,
2013-11-03 22:28:00,43.2,38.4,30.14,East,80,0.0,0.0,83,0.00,,---,0.01,VWS V14.01,2013-11-04 04:28:00,
2013-11-03 22:33:00,43.5,38.7,30.13,East,80,0.0,0.0,83,0.00,,---,0.01,VWS V14.01,2013-11-04 04:33:00,
2013-11-03 22:38:00,43.7,38.6,30.13,East,80,0.0,0.0,82,0.00,,---,0.01,VWS V14.01,2013-11-04 04:38:00,
2013-11-03 22:43:00,43.9,38.8,30.13,East,80,0.0,0.0,82,0.00,,---,0.01,VWS V14.01,2013-11-04 04:43:00,
2013-11-03 22:48:00,44.0,38.9,30.12,East,101,0.0,1.0,82,0.00,,---,0.01,VWS V14.01,2013-11-04 04:48:00,
2013-11-03 22:53:00,44.1,38.7,30.12,SSE,166,0.0,1.0,81,0.00,,---,0.01,VWS V14.01,2013-11-04 04:53:00,
2013-11-03 22:58:00,44.1,38.7,30.12,SSE,166,0.0,1.0,81,0.00,,---,0.01,VWS V14.01,2013-11-04 04:58:00,
2013-11-03 23:01:00,44.1,38.7,30.12,SSE,163,0.0,1.0,81,0.00,,---,0.01,VWS V14.01,2013-11-04 05:01:00,
2013-11-03 23:02:00,44.1,38.7,30.11,SSE,163,0.0,1.0,81,0.00,,---,0.01,VWS V14.01,2013-11-04 05:02:00,
2013-11-03 23:07:00,44.0,38.5,30.11,ENE,73,0.0,1.0,81,0.00,,---,0.01,VWS V14.01,2013-11-04 05:07:00,
2013-11-03 23:12:00,44.0,38.5,30.11,ENE,73,0.0,1.0,81,0.00,,---,0.01,VWS V14.01,2013-11-04 05:12:00,
2013-11-03 23:17:00,43.8,38.4,30.10,ESE,116,0.0,1.0,81,0.00,,---,0.01,VWS V14.01,2013-11-04 05:17:00,
2013-11-03 23:22:00,43.7,38.3,30.10,ESE,116,0.0,1.0,81,0.00,,---,0.01,VWS V14.01,2013-11-04 05:22:00,
2013-11-03 23:27:00,43.5,38.4,30.10,ESE,116,0.0,1.0,82,0.00,,---,0.01,VWS V14.01,2013-11-04 05:27:00,
2013-11-03 23:32:00,43.4,38.3,30.10,ESE,116,0.0,1.0,82,0.00,,---,0.01,VWS V14.01,2013-11-04 05:32:00,
2013-11-03 23:37:00,43.2,38.1,30.10,SE,140,0.0,1.0,82,0.00,,---,0.01,VWS V14.01,2013-11-04 05:37:00,
2013-11-03 23:42:00,43.2,38.1,30.10,SE,142,0.0,1.0,82,0.00,,---,0.01,VWS V14.01,2013-11-04 05:42:00,
2013-11-03 23:47:00,43.1,38.0,30.10,SE,142,0.0,1.0,82,0.00,,---,0.01,VWS V14.01,2013-11-04 05:47:00,
2013-11-03 23:52:00,43.0,38.2,30.10,SE,142,0.0,1.0,83,0.00,,---,0.01,VWS V14.01,2013-11-04 05:52:00,
2013-11-03 23:57:00,42.9,38.1,30.10,SE,142,0.0,1.0,83,0.00,,---,0.01,VWS V14.01,2013-11-04 05:57:00,